Location: Marstown
(39.5056°N, 77.0820°W)
Time: 04:51:00
(UTC-04:00)

ISS - Visible Passes

Search period start: 08 May 2026 00:00
Search period end: 18 May 2026 00:00
Orbit: 414 x 424 km, 51.6° (Epoch: 8 May)

Date Brightness Start Highest point End Pass type
(mag) Time Alt. Az. Time Alt. Az. Time Alt. Az.
8 May -0.8 02:46:41 14° N 02:47:51 17° NNE 02:50:07 10° ENE visible
8 May -3.7 04:21:44 10° NW 04:25:06 80° NE 04:28:28 10° SE visible
8 May -3.4 21:04:16 10° SSW 21:07:26 42° SE 21:10:37 10° ENE visible
8 May -1.5 22:41:31 10° W 22:44:21 25° NNW 22:47:12 10° NNE visible
9 May -2.8 03:36:49 40° N 03:37:29 46° NNE 03:40:45 10° ESE visible
9 May -2.3 05:11:38 10° W 05:14:03 18° SW 05:16:28 10° S visible
9 May -2.2 21:53:31 10° W 21:56:38 36° NNW 21:59:46 10° NE visible
9 May -0.4 23:32:41 10° NW 23:34:12 12° NNW 23:35:42 10° NNE visible
10 May -1.7 04:28:50 15° SSE 04:28:50 15° SSE 04:29:37 10° SSE visible
10 May -3.2 21:05:42 10° WSW 21:08:59 60° NW 21:12:18 10° NE visible
10 May -0.6 22:44:20 10° NW 22:46:20 15° NNW 22:48:21 10° NNE visible
11 May -0.2 00:23:27 10° N 00:24:00 11° N 00:24:00 11° N visible
11 May -0.9 21:56:04 10° WNW 21:58:31 19° NNW 22:00:59 10° NNE visible
11 May -0.3 23:35:40 10° NNW 23:36:22 10° N 23:37:03 10° N visible
12 May -1.3 21:07:53 10° W 21:10:44 25° NNW 21:13:34 10° NNE visible
12 May -0.4 22:47:26 10° NNW 22:48:27 11° N 22:49:27 10° N visible
13 May -0.3 00:24:38 10° NNW 00:25:13 12° N 00:25:13 12° N visible
13 May -0.6 21:59:02 10° NW 22:00:31 12° NNW 22:02:02 10° NNE visible
13 May -0.6 23:37:15 10° NNW 23:38:31 12° N 23:39:12 11° NNE visible
14 May -0.8 21:10:38 10° NW 21:12:38 15° NNW 21:14:38 10° NNE visible
14 May -0.5 22:49:46 10° N 22:50:34 11° N 22:51:23 10° NNE visible
15 May -0.4 00:25:42 10° NNW 00:26:05 12° NNW 00:26:05 12° NNW visible
15 May -0.5 22:01:57 10° NNW 22:02:37 10° N 22:03:17 10° N visible
15 May -0.9 23:38:17 10° NNW 23:40:01 16° N 23:40:01 16° N visible
16 May -0.6 21:13:39 10° NNW 21:14:40 11° N 21:15:40 10° N visible
16 May -0.9 22:50:52 10° NNW 22:52:37 13° NNE 22:53:57 11° NE visible
17 May -0.3 00:26:50 10° NW 00:26:53 10° NW 00:26:53 10° NW visible
17 May -0.8 22:03:27 10° NNW 22:04:41 12° N 22:05:55 10° NNE visible
17 May -1.1 23:39:19 10° NW 23:40:49 21° NNW 23:40:49 21° NNW visible
